Regional Weather Roundup
Issued by NWS

Home | Current Version | Previous Version | Text Only | Print | Product List | Glossary Off
Versions: 1 2 3 4 5 6 7 8 9 10 11 12 13 14 15 16 17 18 19 20 21 22 23 24 25 26 27 28 29 30 31 32 33 34 35 36 37 38 39 40 41 42 43 44 45 46 47 48 49 50

000
ASUS43 KDTX 220710
RWRMI
MICHIGAN HOURLY REGIONAL WEATHER ROUNDUP
NATIONAL WEATHER SERVICE DETROIT/PONTIAC MI
200 AM EST THU FEB 22 2018

NOTE: "FAIR" INDICATES FEW OR NO CLOUDS BELOW 12,000 FEET WITH NO
SIGNIFICANT WEATHER AND/OR OBSTRUCTION TO VISIBILITY.

MIZ047>049-052>055-059>063-066>070-074>076-081>083-220800-
SOUTHEAST LOWER MICHIGAN

CITY           SKY/WX    TMP DP  RH WIND       PRES   REMARKS
ADRIAN         MOCLDY    31  27  85 E10       30.60F WCI  22
ALMA           FAIR      29  26  86 NE6       30.63F WCI  23
ANN ARBOR      FAIR      31  27  85 NE7       30.60F WCI  24
BAD AXE        FAIR      25  23  89 CALM      30.68S
CARO           FAIR      27  25  89 E7        30.65F WCI  20
DETROIT CITY   FAIR      29  24  82 NE10      30.64F WCI  20
DETROIT        CLOUDY    31  26  82 NE9       30.62F WCI  23
FLINT          FAIR      29  26  89 E10       30.63F WCI  20
GROSSE ILE     MOCLDY    31  27  84 NE9       30.62S WCI  23
HILLSDALE      CLOUDY    32  28  86 E9        30.55F WCI  24
HOWELL         FAIR      31  30  95 E7        30.59F WCI  24

CITY           SKY/WX    TMP DP  RH WIND       PRES   REMARKS
JACKSON        FAIR      32  28  85 E8        30.57F WCI  25
LAMBERTVILLE   CLOUDY    32  28  86 NE6       30.60F WCI  26
LANSING        FAIR      30  27  88 NE7       30.60F WCI  23
LAPEER         CLOUDY    29  26  88 E6        30.64F WCI  23
MASON          FAIR      33  27  79 NE6       30.59F WCI  27
MONROE         CLOUDY    31  26  83 NE7       30.61F WCI  24
MT. CLEMENS    MOCLDY    29  29  99 NE8       30.63F WCI  21
PONTIAC        MOCLDY    29  26  89 NE9       30.61F WCI  20
PORT HOPE        N/A     29  22  75 NE10      30.66F WCI  20
PORT HURON     FAIR      28  23  80 NE8       30.66F WCI  20
TRI CITIES     FAIR      30  26  85 E10       30.64F WCI  21
MIDLAND        FAIR      29  27  94 NE5       30.64F WCI  24
TROY           FAIR      30  26  84 NE9       30.65F WCI  22
SAGINAW HB     FAIR      30  28  93 E7        30.64F WCI  23
$$
MIZ043>046-050>051-056>058-064>065-071>073-077>080-220800-
SOUTHWEST LOWER MICHIGAN

CITY           SKY/WX    TMP DP  RH WIND       PRES   REMARKS
BATTLE CREEK   FAIR      32  27  81 NE9       30.57F WCI  24
BENTON HARBOR  FAIR      29  23  78 NE7       30.57F WCI  22
BIG RAPIDS     FAIR      24  19  80 CALM      30.61F
COLDWATER      FAIR      33  31  91 E9        30.56F WCI  25
FREMONT        FAIR      24  16  72 NE3       30.62F
HOLLAND        FAIR      29  21  72 NE6       30.61F WCI  23
GRAND RAPIDS   FAIR      29  22  75 NE8       30.60F WCI  21
IONIA          FAIR      30  24  79 NE6       30.60F WCI  24
KALAMAZOO      FAIR      32  26  78 NE7       30.57F WCI  26
LUDINGTON      FAIR      22  19  87 CALM      30.65S
MARSHALL       FAIR      32  28  84 NE5       30.57F WCI  27
MOUNT PLEASANT FAIR      28  21  75 N3        30.63F
MUSKEGON       FAIR      25  19  78 NE5       30.62F WCI  19
SOUTH HAVEN    FAIR      29  24  82 NE7       30.58F WCI  22
$$
MIZ016>042-220800-
NORTHERN LOWER MICHIGAN

CITY           SKY/WX    TMP DP  RH WIND       PRES   REMARKS
ALPENA         FAIR      20  17  88 CALM      30.68F
BEAVER ISLAND  FAIR      14  12  92 CALM      30.67F
BELLAIRE       FAIR      19  19  99 CALM      30.68F
CADILLAC       FAIR      19  17  92 NE3       30.59S
CHARLEVOIX     FAIR      19  17  93 CALM      30.70F
FRANKFORT      FAIR      22  18  87 CALM      30.66S
GAYLORD        FAIR      18  17  96 CALM      30.62F
GRAYLING       FAIR      17  16  95 CALM      30.62F
HARBOR SPRINGS FAIR      16  15  95 NE5       30.67F WCI   9
HOUGHTON LAKE  FAIR      21  17  84 NE5       30.63F WCI  15
MANISTEE       FAIR      20  17  88 NE3       30.66F
OSCODA         FAIR      23  17  79 N6        30.67F WCI  16
PELLSTON       FAIR      14  10  84 CALM      30.68S
ROGERS CITY    FAIR      19  15  86 CALM      30.69S
TRAVERSE CITY  FAIR      22  17  81 CALM      30.66F
$$
MIZ007>008-015-220800-
EASTERN UPPER MICHIGAN

CITY           SKY/WX    TMP DP  RH WIND       PRES   REMARKS
KINROSS        FAIR       9   6  88 CALM      30.69R
MACKINAC ISLAN FAIR      15  13  92 CALM      30.67S
NEWBERRY       FAIR       5   5  98 CALM      30.66S
S. S. MARIE    FAIR      12   8  84 CALM      30.68S
MUNISING         N/A      5   3  91 S6        30.67S WCI  -6
$$
MIZ004>006-011>014-085-220800-
CENTRAL UPPER MICHIGAN

CITY           SKY/WX    TMP DP  RH WIND       PRES   REMARKS
MANISTIQUE     FAIR       7   6  94 CALM      30.66S
ESCANABA       FAIR      11   5  77 NW3       30.67F
MENOMINEE      FAIR      16  10  77 NW6       30.67S WCI   7
SAWYER-GWINN   FAIR      -2  -6  82 CALM      30.64R
$$
MIZ001>003-009>011-084-220800-
WESTERN UPPER MICHIGAN

CITY           SKY/WX    TMP DP  RH WIND       PRES   REMARKS
IRON MOUNTAIN  FAIR       4   0  83 N6        30.62F WCI  -7
HOUGHTON       FAIR      10   2  69 SW3       30.62R
COPPER HARBOR    N/A     13   6  74 SW8       30.64R WCI   2
IRONWOOD       FAIR       2  -1  88 CALM      30.62F
$$

ABBREVIATIONS USED IN REMARKS
   TC - TEMPERATURE IN CELSIUS
  WCI - WIND CHILL INDEX
   HX - HEAT INDEX
  VSB - VISIBILITY





USA.gov is the U.S. government's official web portal to all federal, state and local government web resources and services.